EW9434 Weather Reports


time (UTC)temp
F
wind
direction
speed
knots
gust
knots
rain 1hr
in
rain 24hr
in
rain mn
in
humidity
%
barometer
mb
20260904162209 94 168 3.5 7.8 0.00 0.00 0.00 56 1015.6
20260904161713 94 206 3.5 8.7 0.00 0.00 0.00 54 1015.7
20260904161533 93 197 3.5 8.7 0.00 0.00 0.00 55 1013.9
20260904161146 93 194 3.5 8.7 0.00 0.00 0.00 56 1015.7
20260904160644 93 180 3.5 7.8 0.00 0.00 0.00 55 1015.8
20260904160116 93 172 2.6 6.1 0.00 0.00 0.00 57 1015.7
20260904160059 92 268 0.9 6.1 0.00 0.00 0.00 58 1014.0
20260904155812 93 188 2.6 8.7 0.00 0.00 0.00 58 1015.7
20260904155051 92 212 2.6 8.7 0.00 0.00 0.00 59 1015.7
20260904154555 92 132 2.6 9.6 0.00 0.00 0.00 59 1015.8
20260904154523 92 132 3.5 9.6 0.00 0.00 0.00 58 1014.0
20260904154033 92 205 2.6 9.6 0.00 0.00 0.00 60 1015.7
20260904153754 91 172 3.5 8.7 0.00 0.00 0.00 60 1015.8
20260904153042 91 179 3.5 8.7 0.00 0.00 0.00 61 1014.0
20260904153027 91 289 2.6 8.7 0.00 0.00 0.00 61 1015.8
20260904152526 91 224 2.6 7.0 0.00 0.00 0.00 62 1015.7
20260904152250 90 126 2.6 7.0 0.00 0.00 0.00 62 1015.6
20260904151744 90 200 2.6 6.1 0.00 0.00 0.00 64 1015.6
20260904151557 90 153 1.7 5.2 0.00 0.00 0.00 64 1013.9
20260904150955 90 194 1.7 5.2 0.00 0.00 0.00 64 1015.6
20260904150456 89 172 2.6 6.1 0.00 0.00 0.00 65 1015.6
20260904150214 89 200 2.6 7.0 0.00 0.00 0.00 64 1015.7
20260904150035 88 201 1.7 6.1 0.00 0.00 0.00 66 1013.9
20260904145932 89 201 3.5 7.0 0.00 0.00 0.00 66 1015.6
20260904144948 88 221 2.6 7.0 0.00 0.00 0.00 66 1015.6
20260904144649 88 186 2.6 5.2 0.00 0.00 0.00 66 1015.5
20260904144502 88 172 2.6 6.1 0.00 0.00 0.00 66 1013.7
20260904143856 88 194 2.6 7.8 0.00 0.00 0.00 65 1015.6
20260904143330 88 215 2.6 7.8 0.00 0.00 0.00 65 1015.6
20260904143100 87 183 3.5 7.8 0.00 0.00 0.00 65 1013.8
20260904142825 88 153 2.6 6.1 0.00 0.00 0.00 67 1015.6
20260904142544 87 164 2.6 7.0 0.00 0.00 0.00 66 1015.6
20260904141757 87 204 1.7 7.0 0.00 0.00 0.00 66 1015.6
20260904141529 87 190 0.9 4.3 0.00 0.00 0.00 69 1013.8
20260904141257 87 190 1.7 5.2 0.00 0.00 0.00 69 1015.5
20260904140729 87 211 1.7 3.5 0.00 0.00 0.00 69 1015.4
20260904140229 87 195 1.7 3.5 0.00 0.00 0.00 70 1015.4
20260904140055 86 195 0.0 3.5 0.00 0.00 0.00 71 1013.6
20260904135702 86 195 1.7 5.2 0.00 0.00 0.00 70 1015.4
20260904135158 86 196 1.7 5.2 0.00 0.00 0.00 71 1015.4
20260904134915 85 77 1.7 3.5 0.00 0.00 0.00 71 1015.6
20260904134540 85 173 0.9 3.5 0.00 0.00 0.00 71 1013.7
20260904134420 85 176 1.7 2.6 0.00 0.00 0.00 72 1015.5
20260904133627 85 178 1.7 3.5 0.00 0.00 0.00 73 1015.6
20260904133102 84 180 2.6 6.1 0.00 0.00 0.00 74 1015.6
20260904133035 84 180 0.9 5.2 0.00 0.00 0.00 74 1013.9
20260904132536 84 184 1.7 6.1 0.00 0.00 0.00 74 1015.6
20260904132250 84 196 0.9 3.5 0.00 0.00 0.00 75 1015.6
20260904131531 83 149 1.7 3.5 0.00 0.00 0.00 76 1015.6
20260904131515 83 149 1.7 2.6 0.00 0.00 0.00 76 1013.9
20260904131028 83 149 0.9 3.5 0.00 0.00 0.00 77 1015.6
20260904130525 83 151 0.9 2.6 0.00 0.00 0.00 77 1015.7
20260904130038 82 151 0.9 4.3 0.00 0.00 0.00 79 1013.9
20260904130020 82 151 0.9 4.3 0.00 0.00 0.00 79 1015.6
20260904125519 82 151 0.9 4.3 0.00 0.00 0.00 78 1015.7
20260904124952 82 81 0.9 3.5 0.00 0.00 0.00 81 1015.7
20260904124506 81 80 0.9 2.6 0.00 0.00 0.00 82 1013.9
20260904124425 81 80 0.9 3.5 0.00 0.00 0.00 82 1015.6
20260904123903 81 80 1.7 3.5 0.00 0.00 0.00 83 1015.6
20260904123354 80 80 1.7 3.5 0.00 0.00 0.00 83 1015.5
20260904123009 80 80 1.7 2.6 0.00 0.00 0.00 83 1013.8
20260904122828 80 80 0.9 3.5 0.00 0.00 0.00 83 1015.5
20260904122542 80 78 0.9 3.5 0.00 0.00 0.00 84 1015.5
20260904121820 80 77 0.0 3.5 0.00 0.00 0.00 84 1015.4
20260904121545 79 73 0.0 0.9 0.00 0.00 0.00 85 1013.6
20260904121317 79 118 0.0 0.9 0.00 0.00 0.00 85 1015.4
20260904120814 79 273 0.0 0.9 0.00 0.00 0.00 86 1015.3
20260904120246 79 118 0.0 1.7 0.00 0.00 0.00 86 1015.3
20260904120019 78 118 0.0 1.7 0.00 0.00 0.00 86 1013.5
20260904115742 79 118 0.0 1.7 0.00 0.00 0.00 86 1015.3
20260904115242 79 116 0.0 1.7 0.00 0.00 0.00 86 1015.2
20260904114712 79 118 0.0 1.7 0.00 0.00 0.00 86 1015.1
20260904114510 78 119 0.0 1.7 0.00 0.00 0.00 86 1013.3
20260904114211 78 118 0.0 1.7 0.00 0.00 0.00 86 1015.0
20260904113707 78 111 0.0 0.9 0.00 0.00 0.00 86 1015.0
20260904113205 78 118 0.0 0.9 0.00 0.00 0.00 86 1014.9
20260904113053 78 119 0.0 0.9 0.00 0.00 0.00 86 1013.2
20260904112701 78 120 0.0 0.9 0.00 0.00 0.00 86 1015.0
20260904112139 78 120 0.0 0.9 0.00 0.00 0.00 86 1014.9
20260904111632 78 119 0.0 1.7 0.00 0.00 0.00 86 1014.8
20260904111540 78 120 0.0 1.7 0.00 0.00 0.00 86 1013.1
20260904111133 78 120 0.0 1.7 0.00 0.00 0.00 86 1014.7
20260904110837 78 120 0.0 0.9 0.00 0.00 0.00 86 1014.6
20260904110030 78 120 0.0 0.9 0.00 0.00 0.00 86 1012.6
20260904105753 78 120 0.0 1.7 0.00 0.00 0.00 87 1014.4
20260904105031 78 120 0.9 1.7 0.00 0.00 0.00 87 1014.2
20260904104520 78 121 0.9 1.7 0.00 0.00 0.00 87 1012.5
20260904104501 78 121 0.9 1.7 0.00 0.00 0.00 87 1014.2
20260904104002 78 122 0.0 2.6 0.00 0.00 0.00 87 1014.2
20260904103701 78 121 0.0 1.7 0.00 0.00 0.00 87 1014.3
20260904103120 78 120 0.0 1.7 0.00 0.00 0.00 86 1012.5
20260904102932 78 120 0.0 1.7 0.00 0.00 0.00 86 1014.3
20260904102632 78 121 0.0 1.7 0.00 0.00 0.00 86 1014.3
20260904101900 79 121 0.0 1.7 0.00 0.00 0.00 86 1014.2
20260904101548 78 121 0.0 1.7 0.00 0.00 0.00 86 1012.5
20260904101358 79 121 0.0 1.7 0.00 0.00 0.00 86 1014.3
20260904100830 79 121 0.0 1.7 0.00 0.00 0.00 86 1014.3
20260904100324 79 121 0.0 1.7 0.00 0.00 0.00 86 1014.3
20260904100043 78 121 0.0 0.9 0.00 0.00 0.00 86 1014.3
20260904100012 78 121 0.0 0.9 0.00 0.00 0.00 86 1012.6
20260904095315 78 120 0.0 0.0 0.00 0.00 0.00 86 1014.3
20260904094814 79 121 0.0 0.0 0.00 0.00 0.00 86 1014.3
20260904094524 78 120 0.0 0.0 0.00 0.00 0.00 86 1012.5
20260904094245 79 121 0.0 0.9 0.00 0.00 0.00 85 1014.3
20260904093743 79 121 0.0 0.9 0.00 0.00 0.00 85 1014.3
20260904093242 79 121 0.0 0.9 0.00 0.00 0.00 85 1014.2
20260904093038 78 121 0.0 0.9 0.00 0.00 0.00 85 1012.5
20260904092739 79 121 0.0 0.9 0.00 0.00 0.00 85 1014.2
20260904092211 79 120 0.0 0.9 0.00 0.00 0.00 86 1014.2
20260904091708 79 121 0.0 0.0 0.00 0.00 0.00 85 1014.3
20260904091545 78 121 0.0 0.0 0.00 0.00 0.00 85 1012.5
20260904091143 79 121 0.0 0.0 0.00 0.00 0.00 84 1014.3
20260904090616 79 121 0.0 0.0 0.00 0.00 0.00 84 1014.2
20260904090106 79 121 0.0 0.0 0.00 0.00 0.00 84 1012.5
20260904090048 79 121 0.0 0.0 0.00 0.00 0.00 84 1014.3
20260904085546 79 121 0.0 0.0 0.00 0.00 0.00 84 1014.3
20260904085021 79 122 0.0 0.0 0.00 0.00 0.00 84 1014.3
20260904084510 79 122 0.0 0.0 0.00 0.00 0.00 84 1012.5
20260904084453 79 122 0.0 0.0 0.00 0.00 0.00 84 1014.3
20260904083950 79 122 0.0 0.0 0.00 0.00 0.00 84 1014.3
20260904083422 79 122 0.0 0.9 0.00 0.00 0.00 84 1014.3
20260904083110 79 122 0.0 0.9 0.00 0.00 0.00 84 1012.5
20260904082920 79 122 0.0 0.9 0.00 0.00 0.00 84 1014.3
20260904082352 79 121 0.0 1.7 0.00 0.00 0.00 84 1014.4
20260904081850 80 121 0.0 1.7 0.00 0.00 0.00 84 1014.4
20260904081513 79 121 0.0 1.7 0.00 0.00 0.00 84 1012.5
20260904081324 79 122 0.0 0.9 0.00 0.00 0.00 84 1014.3
20260904080758 80 122 0.0 0.0 0.00 0.00 0.00 83 1014.4
20260904080229 80 122 0.0 0.0 0.00 0.00 0.00 83 1014.4
20260904080028 79 122 0.0 0.0 0.00 0.00 0.00 83 1012.6
20260904075729 80 122 0.0 0.0 0.00 0.00 0.00 83 1014.3
20260904075224 80 122 0.0 0.0 0.00 0.00 0.00 82 1014.4
20260904074723 80 122 0.0 0.0 0.00 0.00 0.00 81 1014.4
20260904074558 79 122 0.0 0.0 0.00 0.00 0.00 81 1012.6
20260904074152 80 122 0.0 0.0 0.00 0.00 0.00 81 1014.4
20260904073639 80 121 0.0 0.0 0.00 0.00 0.00 81 1014.5
20260904073110 80 121 0.0 0.0 0.00 0.00 0.00 81 1014.4
20260904073020 79 121 0.0 0.0 0.00 0.00 0.00 81 1012.6
20260904072610 80 121 0.0 0.0 0.00 0.00 0.00 81 1014.5
20260904072044 80 122 0.0 0.0 0.00 0.00 0.00 82 1014.5
20260904071543 79 122 0.0 0.0 0.00 0.00 0.00 82 1012.6
20260904071514 80 122 0.0 0.0 0.00 0.00 0.00 82 1014.5
20260904071012 80 122 0.9 1.7 0.00 0.00 0.00 82 1014.6
20260904070508 80 121 0.9 1.7 0.00 0.00 0.00 82 1014.7
20260904070232 80 121 0.0 0.9 0.00 0.00 0.00 81 1014.7
20260904070054 80 121 0.0 1.7 0.00 0.00 0.00 82 1012.9
20260904065442 80 121 0.0 0.0 0.00 0.00 0.00 81 1014.8
20260904064914 80 121 0.0 0.0 0.00 0.00 0.00 81 1014.9
20260904064608 80 121 0.0 0.0 0.00 0.00 0.00 81 1013.1
20260904064411 81 121 0.0 0.0 0.00 0.00 0.00 81 1014.9
20260904063901 81 121 0.0 0.9 0.00 0.00 0.00 81 1014.9
20260904063402 81 121 0.0 1.7 0.00 0.00 0.00 81 1014.8
20260904063037 80 121 0.0 1.7 0.00 0.00 0.00 80 1013.0
20260904062838 81 121 0.0 1.7 0.00 0.00 0.00 79 1014.9
20260904062544 81 121 0.0 0.0 0.00 0.00 0.00 79 1014.9
20260904061752 81 121 0.0 0.0 0.00 0.00 0.00 79 1014.9
20260904061545 81 121 0.0 0.0 0.00 0.00 0.00 79 1013.1
20260904061253 81 121 0.0 0.9 0.00 0.00 0.00 79 1014.9
20260904060741 81 121 0.0 0.9 0.00 0.00 0.00 78 1015.0
20260904060244 81 121 0.0 0.0 0.00 0.00 0.00 78 1015.0
20260904060013 81 120 0.0 0.9 0.00 0.00 0.00 78 1013.2
20260904055717 81 120 0.0 0.9 0.00 0.00 0.00 78 1015.0
20260904055637 82 121 0.0 1.7 0.00 0.00 0.00 78 1015.0
20260904054626 82 121 0.0 1.7 0.00 0.00 0.00 78 1015.1
20260904054556 81 121 0.9 1.7 0.00 0.00 0.00 78 1013.3
20260904054104 82 121 0.0 0.9 0.00 0.00 0.00 78 1015.1
20260904053604 82 121 0.0 0.9 0.00 0.00 0.00 78 1015.1
20260904053039 82 121 0.0 0.9 0.00 0.00 0.00 78 1015.0
20260904053008 82 121 0.0 0.9 0.00 0.00 0.00 78 1013.1
20260904052739 82 121 0.9 1.7 0.00 0.00 0.00 77 1015.1
20260904052237 82 120 0.9 1.7 0.00 0.00 0.00 77 1015.0
20260904051514 82 120 0.9 1.7 0.00 0.00 0.00 77 1013.2
20260904051456 82 119 0.9 1.7 0.00 0.00 0.00 77 1015.0
20260904050956 83 120 0.0 1.7 0.00 0.00 0.00 76 1015.0
20260904050443 83 273 0.0 0.9 0.00 0.00 0.00 76 1015.0
20260904050012 82 273 0.0 1.7 0.00 0.00 0.00 76 1013.2
20260904045934 83 273 0.0 1.7 0.00 0.00 0.00 76 1015.0
20260904045638 83 273 0.0 1.7 0.00 0.00 0.00 75 1015.0
20260904044914 83 273 0.0 0.9 0.00 0.00 0.00 74 1015.0
20260904044614 83 273 0.0 0.9 0.00 0.00 0.00 74 1013.2
20260904044417 84 121 0.0 0.9 0.00 0.00 0.00 74 1015.0
20260904044341 84 122 0.0 1.7 0.00 0.00 0.00 74 1014.9
20260904043401 84 122 0.0 1.7 0.00 0.00 0.00 73 1015.0
20260904043008 83 122 0.0 1.7 0.00 0.00 0.00 74 1013.1
20260904042838 84 122 0.9 1.7 0.00 0.00 0.00 74 1014.9
20260904042315 84 122 0.9 1.7 0.00 0.00 0.00 73 1014.8
20260904041806 84 122 0.0 1.7 0.00 0.00 0.00 74 1014.9
20260904041526 84 122 0.0 1.7 0.00 0.00 0.00 73 1014.9
20260904041524 84 122 0.9 1.7 0.00 0.00 0.00 73 1013.0
20260904040801 84 122 0.0 2.6 0.00 0.00 0.00 73 1014.8
20260904040525 84 122 0.0 2.6 0.00 0.00 0.00 73 1014.9
20260904040059 84 122 0.0 0.9 0.00 0.00 0.00 73 1013.0
20260904035801 84 122 0.0 1.7 0.00 0.00 0.00 73 1014.8
20260904035258 85 122 0.0 1.7 0.00 0.00 0.00 72 1014.8
20260904034757 85 122 0.0 0.9 0.00 0.00 0.00 72 1014.8
20260904034510 84 122 0.0 0.9 0.00 0.00 0.00 72 1013.0
20260904034448 85 122 0.0 1.7 0.00 0.00 0.00 72 1014.8
20260904033700 85 122 0.0 2.6 0.00 0.00 0.00 71 1014.8
20260904033200 85 123 0.9 2.6 0.00 0.00 0.00 70 1014.8
20260904033019 85 122 0.0 2.6 0.00 0.00 0.00 70 1012.9
20260904032850 85 122 0.9 3.5 0.00 0.00 0.00 70 1014.7
20260904032129 86 122 0.9 3.5 0.00 0.00 0.00 69 1014.8
20260904031607 86 122 1.7 3.5 0.00 0.00 0.00 69 1014.8
20260904031532 85 122 0.9 3.5 0.00 0.00 0.00 69 1013.0
20260904031035 86 160 0.9 3.5 0.00 0.00 0.00 68 1014.8
20260904030532 86 197 0.0 1.7 0.00 0.00 0.00 68 1014.9
20260904030050 85 197 0.0 0.9 0.00 0.00 0.00 68 1013.0
20260904030006 86 197 0.0 0.9 0.00 0.00 0.00 68 1014.8
20260904025441 86 197 0.0 0.0 0.00 0.00 0.00 67 1014.9
20260904024913 86 197 0.0 1.7 0.00 0.00 0.00 67 1014.9
20260904024518 86 197 0.0 1.7 0.00 0.00 0.00 67 1013.1
20260904024345 87 197 0.9 1.7 0.00 0.00 0.00 67 1015.0
20260904023843 87 197 0.9 1.7 0.00 0.00 0.00 66 1015.0
20260904023317 87 197 0.0 0.9 0.00 0.00 0.00 66 1015.0
20260904023027 87 197 0.0 0.9 0.00 0.00 0.00 65 1013.1
20260904022748 87 197 0.0 0.9 0.00 0.00 0.00 65 1014.9
20260904022249 87 197 0.0 0.9 0.00 0.00 0.00 64 1014.9
20260904021723 87 197 0.0 0.9 0.00 0.00 0.00 64 1014.9
20260904021554 87 197 0.0 0.9 0.00 0.00 0.00 64 1013.1
20260904021156 88 197 0.0 2.6 0.00 0.00 0.00 64 1014.9
20260904020627 88 197 0.9 2.6 0.00 0.00 0.00 63 1014.8
20260904020059 88 198 0.9 1.7 0.00 0.00 0.00 63 1014.8
20260904020007 87 198 0.0 1.7 0.00 0.00 0.00 63 1013.0
20260904015820 88 198 0.9 1.7 0.00 0.00 0.00 63 1014.9
20260904015028 88 198 0.9 1.7 0.00 0.00 0.00 63 1014.9
20260904014615 87 198 0.9 1.7 0.00 0.00 0.00 63 1013.2
20260904014527 87 198 0.9 1.7 0.00 0.00 0.00 63 1015.0
20260904014003 87 199 0.0 0.9 0.00 0.00 0.00 64 1015.0
20260904013434 87 199 0.0 0.9 0.00 0.00 0.00 63 1015.0
20260904013049 87 199 0.0 0.9 0.00 0.00 0.00 63 1013.2
20260904012929 87 199 0.0 0.0 0.00 0.00 0.00 63 1015.0
20260904012429 88 199 0.0 0.0 0.00 0.00 0.00 63 1015.0
20260904011859 88 199 0.0 0.0 0.00 0.00 0.00 62 1015.0
20260904011513 87 199 0.0 0.0 0.00 0.00 0.00 62 1013.1
20260904011355 88 199 0.0 0.0 0.00 0.00 0.00 62 1015.0
20260904010853 88 199 0.0 0.0 0.00 0.00 0.00 62 1015.0
20260904010345 88 199 0.0 0.0 0.00 0.00 0.00 62 1015.0
20260904010033 88 199 0.0 0.0 0.00 0.00 0.00 61 1013.1
20260904005843 88 199 0.0 0.0 0.00 0.00 0.00 61 1014.8
20260904005318 89 273 0.0 0.0 0.00 0.00 0.00 61 1014.8
20260904005018 89 205 0.0 0.9 0.00 0.00 0.00 60 1014.7
20260904004547 88 205 0.0 0.9 0.00 0.00 0.00 60 1012.8
20260904004510 89 273 0.0 0.9 0.00 0.00 0.00 60 1014.7
20260904003722 89 273 0.0 0.9 0.00 0.00 0.00 60 1014.6
20260904003413 89 205 0.0 0.9 0.00 0.00 0.00 59 1014.5
20260904003100 89 201 0.0 0.9 0.00 0.00 0.00 59 1012.7
20260904002650 89 199 0.0 0.9 0.00 0.00 0.00 59 1014.5
20260904002134 89 199 0.0 1.7 0.00 0.00 0.00 59 1014.5
20260904001821 89 199 0.0 1.7 0.00 0.00 0.00 59 1014.4
20260904001505 89 199 0.0 1.7 0.00 0.00 0.00 59 1012.6
20260904001056 90 199 0.9 3.5 0.00 0.00 0.00 58 1014.4
20260904000751 90 199 0.9 3.5 0.00 0.00 0.00 58 1014.4
20260904000019 90 246 0.0 3.5 0.00 0.00 0.00 57 1012.6
20260904000001 90 244 0.9 3.5 0.00 0.00 0.00 57 1014.4
20260903235459 90 227 1.7 7.0 0.00 0.00 0.00 57 1014.4
20260903234936 91 198 1.7 7.0 0.00 0.00 0.00 57 1014.4
20260903234557 90 201 0.9 6.1 0.00 0.00 0.00 57 1012.6
20260903234429 91 201 1.7 6.1 0.00 0.00 0.00 56 1014.4
20260903233929 91 198 1.7 7.0 0.00 0.00 0.00 56 1014.4
20260903233407 91 200 2.6 7.0 0.00 0.00 0.00 56 1014.3
20260903233106 91 197 2.6 7.0 0.00 0.00 0.00 55 1012.5
20260903232829 91 201 1.7 7.0 0.00 0.00 0.00 56 1014.3
20260903232327 92 214 1.7 6.1 0.00 0.00 0.00 55 1014.2
20260903231801 92 180 1.7 6.1 0.00 0.00 0.00 54 1014.2
20260903231516 92 182 1.7 6.1 0.00 0.00 0.00 54 1012.4
20260903231236 92 201 2.6 6.1 0.00 0.00 0.00 54 1014.1
20260903230707 92 217 2.6 7.0 0.00 0.00 0.00 54 1014.2
20260903230426 93 162 3.5 7.8 0.00 0.00 0.00 53 1014.1
20260903230050 92 138 2.6 7.0 0.00 0.00 0.00 53 1012.3
20260903225639 93 232 2.6 7.8 0.00 0.00 0.00 52 1014.1
20260903225112 93 160 2.6 8.7 0.00 0.00 0.00 52 1014.2
20260903224610 93 159 2.6 8.7 0.00 0.00 0.00 51 1014.2
20260903224542 93 212 3.5 8.7 0.00 0.00 0.00 52 1012.4
20260903224043 93 167 3.5 8.7 0.00 0.00 0.00 52 1014.2
20260903223539 94 190 4.3 11.3 0.00 0.00 0.00 51 1014.1
20260903223038 94 199 4.3 11.3 0.00 0.00 0.00 50 1014.1
20260903223007 93 201 5.2 11.3 0.00 0.00 0.00 50 1012.3
20260903222512 94 204 4.3 9.6 0.00 0.00 0.00 50 1014.0
20260903221944 94 228 4.3 11.3 0.00 0.00 0.00 50 1014.0
20260903221540 93 231 4.3 11.3 0.00 0.00 0.00 51 1012.1
20260903221441 94 166 4.3 11.3 0.00 0.00 0.00 50 1013.9
20260903220915 94 159 5.2 11.3 0.00 0.00 0.00 50 1013.8
20260903220347 94 185 4.3 9.6 0.00 0.00 0.00 50 1013.8
20260903220035 94 196 4.3 9.6 0.00 0.00 0.00 50 1011.9
20260903215846 94 202 4.3 10.4 0.00 0.00 0.00 49 1013.7
20260903215316 94 191 4.3 10.4 0.00 0.00 0.00 49 1013.6
20260903214816 95 215 3.5 7.8 0.00 0.00 0.00 50 1013.5
20260903214533 94 88 3.5 8.7 0.00 0.00 0.00 51 1011.6
20260903214249 95 205 4.3 15.6 0.00 0.00 0.00 50 1013.5
20260903213721 95 207 5.2 15.6 0.00 0.00 0.00 49 1013.5
20260903213221 95 120 4.3 10.4 0.00 0.00 0.00 49 1013.5
20260903213040 94 133 2.6 10.4 0.00 0.00 0.00 50 1011.6
20260903212652 95 46 3.5 10.4 0.00 0.00 0.00 49 1013.5
20260903212417 95 180 3.5 8.7 0.00 0.00 0.00 49 1013.5
20260903211625 95 190 3.5 9.6 0.00 0.00 0.00 48 1013.5
20260903211507 95 211 3.5 7.8 0.00 0.00 0.00 48 1011.7
20260903211057 95 207 3.5 9.6 0.00 0.00 0.00 49 1013.6
20260903210530 95 136 3.5 8.7 0.00 0.00 0.00 51 1013.6
20260903210112 94 116 3.5 7.8 0.00 0.00 0.00 49 1011.7
20260903210027 95 209 3.5 7.0 0.00 0.00 0.00 49 1013.6
20260903205459 95 215 4.3 12.2 0.00 0.00 0.00 48 1013.7
20260903205217 95 159 4.3 12.2 0.00 0.00 0.00 49 1013.7
20260903204654 95 205 4.3 9.6 0.00 0.00 0.00 49 1013.7
20260903204513 95 199 3.5 9.6 0.00 0.00 0.00 47 1012.0
20260903203931 96 230 5.2 14.8 0.00 0.00 0.00 47 1013.8
20260903203431 96 127 5.2 14.8 0.00 0.00 0.00 47 1013.9
20260903203124 96 130 3.5 10.4 0.00 0.00 0.00 47 1014.0
20260903203054 95 238 7.0 13.0 0.00 0.00 0.00 45 1012.1
20260903202600 96 183 4.3 13.0 0.00 0.00 0.00 47 1014.1
20260903201813 96 199 4.3 10.4 0.00 0.00 0.00 47 1014.1
20260903201522 95 199 2.6 13.0 0.00 0.00 0.00 48 1012.3
20260903201253 95 117 6.1 13.0 0.00 0.00 0.00 47 1014.2
20260903200754 95 176 5.2 13.0 0.00 0.00 0.00 46 1014.4
20260903200226 95 204 4.3 10.4 0.00 0.00 0.00 48 1014.3
20260903200039 95 171 2.6 10.4 0.00 0.00 0.00 47 1012.7
20260903195727 95 111 5.2 13.0 0.00 0.00 0.00 46 1014.5
20260903195444 96 130 3.5 13.0 0.00 0.00 0.00 47 1014.6
20260903194727 96 163 4.3 11.3 0.00 0.00 0.00 48 1014.7
20260903194701 96 106 4.3 13.0 0.00 0.00 0.00 47 1014.7
20260903194546 95 109 3.5 7.8 0.00 0.00 0.00 48 1012.8
20260903193712 96 174 4.3 13.0 0.00 0.00 0.00 47 1014.8
20260903193208 96 205 4.3 13.9 0.00 0.00 0.00 48 1014.7
20260903193005 95 125 2.6 13.9 0.00 0.00 0.00 47 1012.9
20260903192934 96 208 4.3 13.9 0.00 0.00 0.00 47 1014.8
20260903192146 96 40 4.3 10.4 0.00 0.00 0.00 47 1014.9
20260903191647 96 188 4.3 10.4 0.00 0.00 0.00 47 1015.0
20260903191505 95 155 3.5 10.4 0.00 0.00 0.00 47 1013.1
20260903191338 96 143 4.3 11.3 0.00 0.00 0.00 47 1015.0
20260903190619 96 149 3.5 11.3 0.00 0.00 0.00 46 1015.1
20260903190322 96 211 2.6 7.8 0.00 0.00 0.00 46 1015.0
20260903190038 96 213 2.6 7.8 0.00 0.00 0.00 46 1013.2
20260903185535 96 157 3.5 9.6 0.00 0.00 0.00 49 1015.1
20260903185037 95 198 4.3 11.3 0.00 0.00 0.00 48 1015.2
20260903184802 95 170 5.2 10.4 0.00 0.00 0.00 47 1015.2
20260903184507 95 122 4.3 10.4 0.00 0.00 0.00 47 1013.4
20260903184012 95 202 5.2 11.3 0.00 0.00 0.00 47 1015.2
20260903183718 96 202 4.3 8.7 0.00 0.00 0.00 47 1015.2
20260903183010 95 190 2.6 9.6 0.00 0.00 0.00 49 1013.5
20260903182934 96 170 3.5 9.6 0.00 0.00 0.00 48 1015.3
20260903182428 95 215 4.3 9.6 0.00 0.00 0.00 49 1015.3
20260903181927 95 82 4.3 9.6 0.00 0.00 0.00 48 1015.3
20260903181541 94 215 3.5 10.4 0.00 0.00 0.00 50 1013.5
20260903181427 94 136 3.5 10.4 0.00 0.00 0.00 54 1015.3
20260903181148 94 211 4.3 10.4 0.00 0.00 0.00 49 1015.3
20260903180411 94 163 3.5 9.6 0.00 0.00 0.00 51 1015.4
20260903180105 94 219 3.5 9.6 0.00 0.00 0.00 50 1013.6
20260903175908 94 192 3.5 12.2 0.00 0.00 0.00 51 1015.4
20260903175405 94 128 5.2 8.7 0.00 0.00 0.00 51 1015.4
20260903174848 94 71 5.2 12.2 0.00 0.00 0.00 50 1015.4
20260903174534 94 242 5.2 12.2 0.00 0.00 0.00 51 1013.7
20260903174348 94 208 4.3 9.6 0.00 0.00 0.00 51 1015.5
20260903174051 94 120 4.3 9.6 0.00 0.00 0.00 51 1015.6
20260903173255 94 147 3.5 9.6 0.00 0.00 0.00 53 1015.6
20260903173043 94 146 4.3 9.6 0.00 0.00 0.00 52 1013.9
20260903172757 94 185 3.5 9.6 0.00 0.00 0.00 52 1015.7
20260903172230 94 189 3.5 8.7 0.00 0.00 0.00 53 1015.7
20260903171705 94 151 2.6 9.6 0.00 0.00 0.00 52 1015.8
20260903171526 93 212 1.7 9.6 0.00 0.00 0.00 52 1014.0
20260903171138 94 194 2.6 9.6 0.00 0.00 0.00 54 1015.8
20260903170645 93 188 3.5 7.8 0.00 0.00 0.00 52 1015.9
20260903170638 94 116 2.6 7.8 0.00 0.00 0.00 53 1015.9
20260903170045 93 188 3.5 7.8 0.00 0.00 0.00 52 1014.1
20260903165813 93 184 3.5 7.8 0.00 0.00 0.00 55 1015.9
20260903165317 93 187 3.5 8.7 0.00 0.00 0.00 54 1016.0
20260903164552 93 210 3.5 8.7 0.00 0.00 0.00 52 1016.1
20260903164522 92 209 3.5 8.7 0.00 0.00 0.00 52 1014.4
20260903164032 93 179 3.5 8.7 0.00 0.00 0.00 55 1016.2
20260903163729 92 120 3.5 8.7 0.00 0.00 0.00 52 1016.2
20260903163157 92 185 2.6 7.8 0.00 0.00 0.00 55 1016.3
20260903163037 92 140 1.7 7.0 0.00 0.00 0.00 55 1014.5
20260903162432 92 138 3.5 7.8 0.00 0.00 0.00 58 1016.3